Weather History for KO22 - April, 2014

Change the Weather History Date:

Saturday, April 26, 2014

  Actual Average (KMOD) Record (KMOD)
Temperature  
Mean Temperature 47 °F -  
Max Temperature 57 °F 78 °F 96 °F (2004)
Min Temperature 37 °F 51 °F 38 °F (1943)
Degree Days  
Heating Degree Days 18 3  
Month to date heating degree days 120  
Since 1 July heating degree days 2125  
Cooling Degree Days 0 2  
Month to date cooling degree days 29  
Year to date cooling degree days 34  
Moisture  
Dew Point 40 °F    
Average Humidity 79    
Maximum Humidity 100    
Minimum Humidity 48    
Precipitation  
Precipitation 0.00 in 0.03 in 0.81 in (1956)
Month to date precipitation 0.87  
Year to date precipitation 7.90  
Snow  
Snow 0.00 in - - ()
Month to date snowfall  
Since 1 July snowfall  
Snow Depth -    
Sea Level Pressure  
Sea Level Pressure 29.92 in    
Wind  
Wind Speed 2 mph (WSW)    
Max Wind Speed 9 mph    
Max Gust Speed -    
Visibility 10 miles    
Events      
T = Trace of Precipitation, MM = Missing Value Source: NWS Daily Summary

Daily Weather History Graph

Daily Weather History Graph

Search for Another Location

Airport or City:

Trip Planner

Search our weather history database for the weather conditions in past years. The results will help you decide how hot, cold, wet, or windy it might be!

Date:

Astronomy

Apr. 26, 2014 Rise Set
Actual Time 6:11 AM PDT 7:48 PM PDT
Civil Twilight 5:43 AM PDT 8:16 PM PDT
Nautical Twilight 5:09 AM PDT 8:49 PM PDT
Astronomical Twilight 4:34 AM PDT 9:25 PM PDT
Moon 4:35 AM PDT (4/26) 5:24 PM PDT (4/26)
Length of Visible Light 14h 32m
Length of Day
13h 36m
Waning Crescent, 7% of the Moon is Illuminated
Apr 26
Waning Crescent
Apr 28
New
May 6
First Quarter
May 14
Full
May 21
Last Quarter

Hourly Weather History & Observations

Time (PDT) Temp. Windchill Dew Point Humidity Pressure Visibility Wind Dir Wind Speed Gust Speed Precip Events Conditions
12:15 AM 39.2 °F - 39.2 °F 100% 29.80 in 7.0 mi Calm Calm - N/A   Overcast
12:35 AM 41.0 °F - 39.2 °F 93% 29.80 in 5.0 mi Calm Calm - N/A   Mostly Cloudy
12:55 AM 41.0 °F - 39.2 °F 93% 29.80 in 9.0 mi Calm Calm - N/A   Mostly Cloudy
1:15 AM 41.0 °F - 39.2 °F 93% 29.80 in 10.0 mi Calm Calm - N/A   Mostly Cloudy
1:35 AM 41.0 °F - 39.2 °F 93% 29.80 in 9.0 mi Calm Calm - N/A   Overcast
1:55 AM 41.0 °F - 39.2 °F 93% 29.80 in 10.0 mi Calm Calm - N/A   Overcast
2:15 AM 41.0 °F - 41.0 °F 100% 29.80 in 10.0 mi Calm Calm - N/A   Overcast
2:35 AM 41.0 °F - 39.2 °F 93% 29.80 in 10.0 mi Calm Calm - N/A   Overcast
3:15 AM 39.2 °F - 39.2 °F 100% 29.79 in 10.0 mi Calm Calm - N/A   Overcast
3:35 AM 39.2 °F - 39.2 °F 100% 29.80 in 0.8 mi Calm Calm - N/A   Overcast
3:55 AM 39.2 °F - 39.2 °F 100% 29.80 in 8.0 mi Calm Calm - N/A   Overcast
4:15 AM 39.2 °F - 37.4 °F 93% 29.81 in 8.0 mi Calm Calm - N/A   Overcast
4:35 AM 39.2 °F - 39.2 °F 100% 29.82 in 10.0 mi Calm Calm - N/A   Overcast
4:55 AM 39.2 °F - 39.2 °F 100% 29.82 in 10.0 mi Calm Calm - N/A   Overcast
5:15 AM 39.2 °F - 39.2 °F 100% 29.82 in 10.0 mi Calm Calm - N/A   Overcast
5:35 AM 39.2 °F - 39.2 °F 100% 29.83 in 10.0 mi Calm Calm - N/A   Overcast
5:55 AM 39.2 °F - 39.2 °F 100% 29.84 in 8.0 mi Calm Calm - N/A   Mostly Cloudy
6:15 AM 37.4 °F - 37.4 °F 100% 29.83 in 10.0 mi Calm Calm - N/A   Overcast
6:35 AM 37.4 °F - 37.4 °F 100% 29.83 in 10.0 mi Calm Calm - N/A   Scattered Clouds
6:55 AM 39.2 °F - 39.2 °F 100% 29.84 in 10.0 mi Calm Calm - N/A   Clear
7:15 AM 39.2 °F - 39.2 °F 100% 29.84 in 10.0 mi Calm Calm - N/A   Clear
7:35 AM 41.0 °F 39.0 °F 41.0 °F 100% 29.85 in 10.0 mi WSW 3.5 mph - N/A   Clear
7:55 AM 41.0 °F - 41.0 °F 100% 29.87 in 10.0 mi Calm Calm - N/A   Clear
8:15 AM 44.6 °F 43.1 °F 42.8 °F 93% 29.89 in 10.0 mi WNW 3.5 mph - N/A   Clear
8:35 AM 44.6 °F 42.2 °F 42.8 °F 93% 29.89 in 10.0 mi West 4.6 mph - N/A   Clear
8:55 AM 44.6 °F 43.1 °F 41.0 °F 87% 29.89 in 10.0 mi West 3.5 mph - N/A   Clear
9:15 AM 44.6 °F - 41.0 °F 87% 29.89 in 10.0 mi Calm Calm - N/A   Partly Cloudy
9:35 AM 46.4 °F - 41.0 °F 81% 29.90 in 10.0 mi Calm Calm - N/A   Clear
9:55 AM 46.4 °F 43.5 °F 41.0 °F 81% 29.91 in 10.0 mi West 5.8 mph - N/A   Mostly Cloudy
10:15 AM 48.2 °F - 41.0 °F 76% 29.91 in 10.0 mi WSW 5.8 mph - N/A   Overcast
10:35 AM 48.2 °F - 42.8 °F 82% 29.93 in 10.0 mi SW 4.6 mph - N/A   Overcast
10:55 AM 48.2 °F - 42.8 °F 82% 29.93 in 10.0 mi WSW 6.9 mph - N/A   Mostly Cloudy
11:15 AM 48.2 °F - 42.8 °F 82% 29.94 in 10.0 mi WSW 4.6 mph - N/A   Mostly Cloudy
11:35 AM 48.2 °F - 42.8 °F 82% 29.94 in 10.0 mi SW 4.6 mph - N/A   Mostly Cloudy
11:55 AM 50.0 °F - 42.8 °F 76% 29.94 in 10.0 mi SW 6.9 mph - N/A   Mostly Cloudy
12:15 PM 53.6 °F - 42.8 °F 67% 29.94 in 10.0 mi SW 5.8 mph - N/A   Mostly Cloudy
12:35 PM 53.6 °F - 41.0 °F 62% 29.94 in 10.0 mi WSW 4.6 mph - N/A   Clear
12:55 PM 53.6 °F - 41.0 °F 62% 29.95 in 10.0 mi SW 6.9 mph - N/A   Mostly Cloudy
1:15 PM 53.6 °F - 41.0 °F 62% 29.96 in 10.0 mi WSW 6.9 mph - N/A   Mostly Cloudy
1:35 PM 53.6 °F - 42.8 °F 67% 29.96 in 10.0 mi WSW 8.1 mph - N/A   Partly Cloudy
1:55 PM 53.6 °F - 42.8 °F 67% 29.96 in 10.0 mi SW 6.9 mph - N/A   Mostly Cloudy
2:15 PM 55.4 °F - 41.0 °F 58% 29.97 in 10.0 mi WSW 5.8 mph - N/A   Mostly Cloudy
2:35 PM 55.4 °F - 41.0 °F 58% 29.97 in 10.0 mi SW 8.1 mph - N/A   Mostly Cloudy
2:55 PM 57.2 °F - 42.8 °F 59% 29.98 in 10.0 mi West 8.1 mph - N/A   Mostly Cloudy
3:15 PM 57.2 °F - 41.0 °F 55% 29.97 in 10.0 mi SW 4.6 mph - N/A   Scattered Clouds
3:35 PM 57.2 °F - 37.4 °F 48% 29.97 in 10.0 mi WNW 9.2 mph - N/A   Scattered Clouds
3:55 PM 57.2 °F - 37.4 °F 48% 29.98 in 10.0 mi SW 3.5 mph - N/A   Scattered Clouds
4:15 PM 57.2 °F - 39.2 °F 51% 29.98 in 10.0 mi WSW 8.1 mph - N/A   Mostly Cloudy
4:55 PM 53.6 °F - 39.2 °F 58% 29.99 in 10.0 mi WSW 3.5 mph - N/A   Scattered Clouds
5:15 PM 53.6 °F - 39.2 °F 58% 29.99 in 10.0 mi WSW 3.5 mph - N/A   Overcast
5:35 PM 55.4 °F - 39.2 °F 54% 29.99 in 10.0 mi SW 5.8 mph - N/A   Overcast
5:55 PM 53.6 °F - 35.6 °F 51% 29.99 in 10.0 mi SW 5.8 mph - N/A   Mostly Cloudy
6:15 PM 53.6 °F - 35.6 °F 51% 29.99 in 10.0 mi SW 5.8 mph - N/A   Mostly Cloudy
6:35 PM 53.6 °F - 37.4 °F 54% 29.99 in 10.0 mi WSW 3.5 mph - N/A   Overcast
6:55 PM 51.8 °F - 37.4 °F 58% 29.99 in 10.0 mi WSW 3.5 mph - N/A   Mostly Cloudy
7:15 PM 50.0 °F - 39.2 °F 66% 29.98 in 10.0 mi West 3.5 mph - N/A   Mostly Cloudy
7:35 PM 50.0 °F - 39.2 °F 66% 30.00 in 10.0 mi West 4.6 mph - N/A   Mostly Cloudy
7:55 PM 48.2 °F - 39.2 °F 71% 30.02 in 10.0 mi WNW 5.8 mph - N/A   Mostly Cloudy
8:15 PM 48.2 °F - 39.2 °F 71% 30.02 in 10.0 mi West 5.8 mph - N/A   Overcast
8:35 PM 48.2 °F - 39.2 °F 71% 30.03 in 10.0 mi West 3.5 mph - N/A   Overcast
8:55 PM 46.4 °F 44.3 °F 39.2 °F 76% 30.03 in 10.0 mi West 4.6 mph - N/A   Mostly Cloudy
9:15 PM 46.4 °F 44.3 °F 39.2 °F 76% 30.04 in 10.0 mi WNW 4.6 mph - N/A   Mostly Cloudy
9:35 PM 46.4 °F 45.2 °F 39.2 °F 76% 30.05 in 10.0 mi NW 3.5 mph - N/A   Mostly Cloudy
9:55 PM 46.4 °F 42.9 °F 39.2 °F 76% 30.06 in 10.0 mi NW 6.9 mph - N/A   Mostly Cloudy
10:15 PM 44.6 °F - 39.2 °F 81% 30.05 in 10.0 mi Calm Calm - N/A   Partly Cloudy
10:35 PM 44.6 °F 43.1 °F 39.2 °F 81% 30.04 in 10.0 mi NW 3.5 mph - N/A   Clear
10:55 PM 42.8 °F - 37.4 °F 81% 30.05 in 10.0 mi Calm Calm - N/A   Clear
11:15 PM 41.0 °F - 37.4 °F 87% 30.05 in 10.0 mi Calm Calm - N/A   Clear
11:35 PM 41.0 °F - 37.4 °F 87% 30.05 in 10.0 mi Calm Calm - N/A   Clear
11:55 PM 39.2 °F - 37.4 °F 93% 30.04 in 10.0 mi Calm Calm - N/A   Clear